Reflectivity
-20 -20 -20 -16 -20 -20 -12 -6 -19 -20 -20 -20 -20 -20 -20 -20 -20 -20 -20 -20 -20 -20 -20 -20 -20 -20 -20 -20 -20 -20 -20 -20
-20 -20 -20 -20 -20 -20 -20 -20 9 -10 -17 -20 -20 -20 -20 -20 -20 -20 -20 -20 -20 -20 -20 -20 -20 -20 -20 -20 -20 -20 -20 -20
-20 -20 -20 -20 -20 -20 -20 14 -20 -19 -1 -6 -8 -19 -20 -20 -20 -20 -20 -20 -20 -20 -20 -20 -20 -20 -20 -20 -20 -20 -20 -20
-20 -20 -20 -20 -20 -20 -20 -20 -20 -20 -13 -14 -9 -1 4 -20 -20 -20 -20 -20 -20 -20 -20 -20 -20 -20 -20 -20 -20 -20 -20 -20
-20 -20 -20 -20 -20 -20 -20 -20 -20 -20 -20 -20 -6 16 8 -11 -20 -20 -20 -20 -20 -20 -20 -20 -20 -20 -20 -20 -20 -20 -20 -20
-20 -20 -20 -20 -20 -20 -20 -20 -20 -20 -20 -20 -20 11 2 22 11 -12 -20 -20 -3 -20 -20 -20 -20 -20 -20 -20 -20 -20 -20 -20
-20 -20 -20 -20 -20 -20 -20 -20 -20 -20 -20 -10 -7 -20 17 15 25 17 2 -19 -9 -6 -20 -20 -20 -20 -20 -20 -20 -20 -20 -20
-20 -20 -20 -20 -20 -20 -20 -20 -20 -20 -20 -20 -20 -10 -7 21 29 24 16 1 -17 10 -3 -20 -20 -20 -20 -20 -20 -20 -20 -20
-20 -20 -20 -20 -20 -20 -20 -20 -20 -20 -20 -20 -20 -20 -14 13 9 31 8 -5 10 3 -20 -5 -20 -20 -20 -20 -20 -20 -20 -20
-20 -20 -20 -20 -20 -20 -20 -20 -20 -20 -20 -20 -20 -20 -20 -20 -6 23 29 6 -17 -6 -15 14 -11 -20 -20 -20 -20 -20 -20 -20
-20 -20 -20 -20 -20 -20 -20 -20 -20 -20 -20 -20 -20 -20 -20 -11 -20 -15 22 34 30 -5 -14 -16 11 -19 -20 -20 -20 -20 -20 -20
-20 -20 -20 -20 -20 -20 -20 -20 -20 -20 -20 -20 -20 -7 -14 -20 -20 -20 5 28 33 6 -18 -20 -8 -20 -20 -20 -20 -20 -20 -20
-20 -20 -20 -20 -20 -20 -20 -20 -20 -20 -20 -20 -20 -20 -20 -20 -20 -20 -20 -17 23 34 15 23 5 -4 17 7 -20 -20 -20 -20
-20 -20 -20 -20 -20 -17 -20 -20 -20 -20 -20 -17 -19 -20 -20 -19 1 -5 6 -1 3 -16 29 34 8 14 -17 -20 -10 -20 -20 -20
-20 -20 -20 -20 -20 -20 -20 -20 -20 -9 -3 12 4 -20 -20 -20 -6 -20 -20 -20 -20 4 -8 44 42 22 -0 3 18 -19 -18 -20
-20 -20 -20 -20 -20 -20 -20 -19 -20 -12 10 -5 -4 -16 -13 -20 -19 -20 -20 -20 -20 -16 -5 29 48 36 29 12 24 -12 -12 -20
-20 -20 -20 -20 -20 -20 5 5 9 -20 6 13 5 3 12 -0 -4 -13 -20 3 -19 -20 -20 -8 16 25 36 2 27 10 -6 -20
-20 -20 -20 -20 -15 5 13 6 -10 -11 -0 9 2 8 11 -15 2 13 -19 -18 6 -20 -8 -18 -13 20 15 24 15 14 -10 -3
-20 -20 -20 -20 -20 -8 -1 7 5 3 -4 6 -18 -10 -17 -11 -20 -7 10 -5 -6 -20 -20 -20 -13 4 35 30 26 13 6 5
-20 -20 -20 -20 -20 1 11 11 6 10 4 -0 0 -3 -11 -20 -19 -20 -2 24 16 -9 -20 -20 -13 17 34 29 27 27 28 25
Wind_Speed
14 15 20 23 22 19 12 11 8 5 5 5 6 7 9 10 10 11 11 11 10 10 9 9 9 8 9 8 7 7 5 3
16 14 14 14 13 23 23 18 12 11 6 7 8 8 9 9 10 10 11 11 11 11 10 9 9 8 9 7 7 7 5 4
15 15 15 14 13 14 18 20 19 15 9 10 6 4 5 8 8 9 11 11 11 11 10 9 7 6 8 6 6 3 3 3
15 14 14 13 11 11 11 11 8 9 9 8 7 5 5 6 8 10 9 9 10 10 10 9 7 4 3 5 3 4 3 3
14 14 11 13 11 8 6 6 7 7 9 10 7 6 4 5 4 4 6 9 5 6 5 4 5 4 4 3 4 4 2 2
12 12 11 12 8 7 7 7 7 7 8 10 8 5 6 6 6 7 8 6 9 7 5 5 6 6 5 5 5 4 3 3
13 13 11 11 11 8 8 7 7 8 8 10 7 6 8 7 8 7 8 8 9 8 8 6 7 7 5 6 6 6 5 3
14 14 13 12 10 11 8 7 8 7 8 8 10 8 7 9 9 9 9 9 9 8 8 9 7 7 7 7 7 5 5 5
15 15 14 14 14 11 8 8 9 8 8 11 10 9 9 9 7 11 10 9 14 9 9 8 5 5 7 6 6 7 7 7
13 12 13 13 12 10 10 9 8 8 8 9 11 10 12 10 7 6 10 10 10 10 9 8 10 7 7 7 7 7 7 7
13 13 14 15 13 10 10 12 10 7 8 8 11 12 12 10 7 8 10 10 11 11 10 10 9 10 8 6 7 7 8 6
11 11 13 13 9 8 8 9 9 10 10 10 12 9 12 11 10 11 8 9 12 12 14 11 10 11 8 8 6 7 7 7
13 14 14 12 10 12 11 12 12 11 10 15 15 13 12 11 10 11 9 11 14 14 14 16 11 11 6 3 4 5 7 7
13 14 15 12 9 10 11 12 10 12 12 13 13 15 12 12 12 12 9 7 12 14 17 13 11 11 7 3 5 4 6 9
15 16 16 15 17 11 9 10 10 9 11 11 12 16 14 13 14 12 12 11 11 14 8 8 6 7 12 5 3 7 4 3
14 15 17 16 18 14 17 12 13 11 11 12 13 15 15 17 17 15 15 12 13 12 11 17 14 8 7 9 2 5 5 2
15 18 18 18 16 16 13 14 12 11 11 15 14 14 15 15 15 16 15 13 13 13 9 11 12 7 12 7 8 1 1 4
14 16 16 17 17 17 16 17 16 13 13 11 10 10 11 14 12 13 14 13 15 12 9 12 11 13 11 11 9 10 6 4
13 15 15 17 16 17 16 15 16 15 13 10 13 10 9 12 14 13 11 13 15 10 9 9 12 8 10 12 11 12 12 9
14 14 16 17 17 17 15 15 10 10 12 12 9 9 11 16 14 14 8 5 5 7 9 9 10 9 10 4 11 4 3 5
Wind_Direction
18 15 14 12 12 7 349 334 289 263 227 206 213 206 198 191 192 191 187 186 182 183 189 190 187 178 173 179 186 194 199 205
14 12 12 6 11 14 11 3 354 308 250 227 216 211 209 211 206 207 198 195 191 188 191 202 201 193 187 184 191 196 202 200
9 6 7 1 7 4 7 2 4 353 328 272 224 237 222 214 217 219 212 202 198 195 192 201 212 209 203 196 185 211 195 201
6 359 1 0 358 358 360 354 353 347 345 323 300 252 231 226 219 218 221 219 209 205 197 196 197 211 209 214 201 212 214 220
358 353 359 358 351 354 355 347 344 338 345 344 295 279 250 234 225 221 220 216 214 214 203 196 191 205 199 214 218 212 217 221
353 350 354 353 346 349 339 339 336 327 331 331 339 286 257 246 237 224 219 209 214 209 206 194 187 205 206 199 222 214 204 207
353 350 353 350 347 340 333 329 321 314 321 318 319 319 306 242 240 232 225 215 211 209 213 207 196 199 199 204 214 221 221 213
347 350 353 346 342 335 328 318 308 317 308 311 305 316 300 316 250 230 225 220 218 211 208 213 212 190 204 200 212 218 220 218
348 348 349 346 340 336 328 320 318 307 306 300 308 296 295 284 304 262 223 220 224 215 205 207 199 198 203 196 201 211 220 220
339 342 341 341 336 329 327 321 313 303 302 301 295 298 287 286 276 282 287 214 207 214 204 208 213 202 207 204 206 206 212 211
343 345 346 343 336 331 322 318 316 306 296 289 297 296 292 287 288 278 263 283 211 212 208 206 211 208 210 200 201 208 212 213
335 344 344 341 335 328 321 320 316 315 306 302 295 294 303 294 284 267 263 258 272 212 209 207 206 214 208 209 201 211 214 210
348 347 348 347 340 337 332 324 319 311 306 305 299 289 284 281 273 273 255 249 244 265 209 204 199 185 176 212 215 204 218 214
353 351 345 340 333 326 318 319 311 308 304 297 296 294 282 278 270 279 261 261 270 247 252 207 199 174 180 150 209 225 223 217
352 347 346 346 343 328 318 314 318 314 314 303 293 290 280 273 266 266 267 259 251 260 182 212 232 177 196 162 163 210 189 154
352 352 350 348 344 333 335 328 319 311 301 299 294 289 281 284 276 264 261 256 244 253 232 217 253 221 214 218 263 137 181 195
357 357 352 348 345 345 339 325 316 316 307 303 292 287 280 276 266 257 252 253 244 246 226 203 207 236 201 187 207 190 117 134
356 356 351 349 353 342 334 332 328 325 317 321 318 306 300 295 304 273 244 239 243 235 229 215 187 225 219 218 209 194 197 145
357 355 351 355 348 346 339 337 333 330 337 330 324 323 319 313 318 304 284 228 234 222 198 199 212 196 226 235 232 217 217 207
359 357 358 355 354 349 345 348 344 342 342 337 334 329 327 323 315 310 302 269 237 225 230 223 198 183 213 55 274 279 304 191